Fremont, NE

8:26 AM CST on December 13, 2019 (GMT -0600)
Fremont Municipal

Weather History for KFET - November, 2019

Change the Weather History Date:

Saturday, November 16, 2019

  Actual Average Record
Temperature  
Mean Temperature 50 °F -  
Max Temperature 61 °F 49 °F 74 °F (2016)
Min Temperature 39 °F 27 °F 0 °F (2014)
Degree Days  
Heating Degree Days 15    
Moisture  
Dew Point 33 °F    
Average Humidity 57    
Maximum Humidity 73    
Minimum Humidity 38    
Precipitation  
Precipitation 0.00 in - - ()
Sea Level Pressure  
Sea Level Pressure 30.03 in    
Wind  
Wind Speed 12 mph ()    
Max Wind Speed 18 mph    
Max Gust Speed 28 mph    
Visibility 10.0 miles    
Events      
Averages and records for this station are not official NWS values.
T = Trace of Precipitation, MM = Missing Value Source: Averaged Metar Reports

Daily Weather History Graph

Daily Weather History Graph

Search for Another Location

Airport or City:

Astronomy

Nov. 16, 2019 Rise Set
Actual Time 7:15 AM CST 5:05 PM CST
Civil Twilight 6:45 AM CST 5:35 PM CST
Nautical Twilight 6:12 AM CST 6:08 PM CST
Astronomical Twilight 5:39 AM CST 6:41 PM CST
Moon 8:38 PM CST (11/16) 11:11 AM CST (11/16)
Length of Visible Light 10h 49m
Length of Day
9h 50m
Waning Gibbous, 82% of the Moon is Illuminated
Nov 16
Waning Gibbous
Nov 19
Last Quarter
Nov 26
New
Dec 4
First Quarter
Dec 11
Full

Hourly Weather History & Observations

Time (CST) Temp. Windchill Dew Point Humidity Pressure Visibility Wind Dir Wind Speed Gust Speed Precip Events Conditions
12:15 AM 43.3 °F 36.1 °F 32.9 °F 67% 30.17 in 10.0 mi SE 15.0 mph 18.4 mph N/A   Clear
12:35 AM 43.2 °F 37.0 °F 32.9 °F 67% 30.17 in 10.0 mi SSE 11.5 mph 19.6 mph N/A   Clear
12:55 AM 42.8 °F 36.2 °F 32.5 °F 67% 30.16 in 10.0 mi SE 12.7 mph 19.6 mph N/A   Clear
1:15 AM 42.3 °F 35.5 °F 32.2 °F 67% 30.16 in 10.0 mi SE 12.7 mph - N/A   Clear
1:35 AM 42.3 °F 35.5 °F 32.0 °F 67% 30.15 in 10.0 mi SE 12.7 mph 17.3 mph N/A   Clear
1:55 AM 41.9 °F 35.0 °F 32.0 °F 68% 30.14 in 10.0 mi SE 12.7 mph 18.4 mph N/A   Clear
2:15 AM 41.5 °F 34.6 °F 32.0 °F 69% 30.14 in 10.0 mi SE 12.7 mph - N/A   Clear
2:35 AM 41.2 °F 34.5 °F 32.0 °F 70% 30.14 in 10.0 mi SE 11.5 mph - N/A   Clear
2:55 AM 41.0 °F 32.8 °F 31.8 °F 70% 30.13 in 10.0 mi SE 16.1 mph - N/A   Clear
3:15 AM 41.0 °F 33.1 °F 31.8 °F 70% 30.13 in 10.0 mi SSE 15.0 mph 20.7 mph N/A   Clear
3:35 AM 41.4 °F 34.0 °F 31.8 °F 69% 30.12 in 10.0 mi SE 13.8 mph 20.7 mph N/A   Clear
3:55 AM 41.2 °F 33.7 °F 31.6 °F 69% 30.12 in 10.0 mi SSE 13.8 mph 19.6 mph N/A   Clear
4:15 AM 41.5 °F 33.5 °F 31.5 °F 67% 30.11 in 10.0 mi SE 16.1 mph 23.0 mph N/A   Clear
4:35 AM 41.0 °F 32.8 °F 31.5 °F 69% 30.11 in 10.0 mi SSE 16.1 mph 19.6 mph N/A   Clear
4:55 AM 40.6 °F 32.7 °F 31.1 °F 69% 30.11 in 10.0 mi SE 15.0 mph 20.7 mph N/A   Clear
5:15 AM 40.3 °F 32.2 °F 31.1 °F 70% 30.11 in 10.0 mi SE 15.0 mph 19.6 mph N/A   Clear
5:35 AM 40.1 °F 31.6 °F 31.1 °F 70% 30.11 in 10.0 mi SSE 16.1 mph 20.7 mph N/A   Clear
5:55 AM 39.9 °F 31.8 °F 30.9 °F 70% 30.10 in 10.0 mi SSE 15.0 mph 20.7 mph N/A   Clear
6:15 AM 39.7 °F 31.9 °F 30.9 °F 71% 30.10 in 10.0 mi SE 13.8 mph 21.9 mph N/A   Clear
6:35 AM 39.7 °F 32.3 °F 30.7 °F 70% 30.10 in 10.0 mi SSE 12.7 mph 20.7 mph N/A   Clear
6:55 AM 39.7 °F 32.7 °F 30.6 °F 70% 30.10 in 10.0 mi SE 11.5 mph 18.4 mph N/A   Clear
7:15 AM 39.2 °F 31.6 °F 30.4 °F 71% 30.10 in 10.0 mi SE 12.7 mph 18.4 mph N/A   Clear
7:35 AM 39.2 °F 31.2 °F 30.2 °F 70% 30.09 in 10.0 mi SE 13.8 mph - N/A   Clear
7:55 AM 39.4 °F 31.8 °F 30.2 °F 70% 30.09 in 10.0 mi SE 12.7 mph - N/A   Clear
8:15 AM 40.1 °F 31.6 °F 30.2 °F 68% 30.10 in 10.0 mi SSE 16.1 mph 19.6 mph N/A   Clear
8:35 AM 41.4 °F 34.0 °F 30.4 °F 65% 30.10 in 10.0 mi SSE 13.8 mph 19.6 mph N/A   Clear
8:55 AM 42.4 °F 34.4 °F 30.6 °F 63% 30.08 in 10.0 mi SSE 17.3 mph 23.0 mph N/A   Clear
9:15 AM 43.7 °F 35.7 °F 30.9 °F 61% 30.07 in 10.0 mi SSE 18.4 mph 25.3 mph N/A   Clear
9:35 AM 43.9 °F 37.2 °F 31.1 °F 61% 30.07 in 10.0 mi SSE 13.8 mph 20.7 mph N/A   Clear
9:55 AM 46.6 °F - 31.8 °F 56% 30.06 in 10.0 mi SSE 17.3 mph 25.3 mph N/A   Clear
10:15 AM 47.7 °F - 32.0 °F 55% 30.05 in 10.0 mi SSE 15.0 mph 26.5 mph N/A   Clear
10:35 AM 48.6 °F - 32.0 °F 53% 30.04 in 10.0 mi SSE 15.0 mph 27.6 mph N/A   Clear
10:55 AM 49.5 °F - 32.2 °F 51% 30.03 in 10.0 mi SSE 16.1 mph 23.0 mph N/A   Clear
11:15 AM 50.2 °F - 32.4 °F 50% 30.03 in 10.0 mi SSE 17.3 mph 25.3 mph N/A   Clear
11:35 AM 52.3 °F - 33.1 °F 48% 30.01 in 10.0 mi SSE 18.4 mph 24.2 mph N/A   Clear
11:55 AM 52.7 °F - 33.1 °F 47% 30.00 in 10.0 mi South 15.0 mph 23.0 mph N/A   Clear
12:15 PM 53.2 °F - 33.4 °F 47% 29.99 in 10.0 mi SSE 12.7 mph 23.0 mph N/A   Clear
12:35 PM 55.4 °F - 33.8 °F 44% 29.97 in 10.0 mi SSE 16.1 mph 24.2 mph N/A   Clear
12:55 PM 55.6 °F - 34.0 °F 44% 29.97 in 10.0 mi South 11.5 mph 21.9 mph N/A   Clear
1:15 PM 55.8 °F - 34.0 °F 44% 29.96 in 10.0 mi SSE 15.0 mph 20.7 mph N/A   Clear
1:35 PM 56.7 °F - 34.5 °F 43% 29.96 in 10.0 mi South 18.4 mph 21.9 mph N/A   Clear
1:55 PM 57.2 °F - 34.5 °F 43% 29.94 in 10.0 mi SSE 12.7 mph 20.7 mph N/A   Clear
2:15 PM 58.8 °F - 34.9 °F 41% 29.93 in 10.0 mi SSE 15.0 mph 23.0 mph N/A   Clear
2:35 PM 61.0 °F - 35.2 °F 38% 29.93 in 10.0 mi South 15.0 mph 23.0 mph N/A   Clear
2:55 PM 59.2 °F - 34.7 °F 40% 29.92 in 10.0 mi South 18.4 mph 23.0 mph N/A   Clear
3:15 PM 59.9 °F - 34.9 °F 39% 29.92 in 10.0 mi South 11.5 mph 18.4 mph N/A   Clear
3:35 PM 58.6 °F - 34.9 °F 41% 29.92 in 10.0 mi SSE 9.2 mph 17.3 mph N/A   Clear
3:55 PM 58.3 °F - 34.9 °F 41% 29.91 in 10.0 mi SE 9.2 mph - N/A   Clear
4:15 PM 57.6 °F - 34.9 °F 43% 29.91 in 10.0 mi SE 11.5 mph - N/A   Clear
4:35 PM 57.2 °F - 34.9 °F 43% 29.91 in 10.0 mi SE 8.1 mph - N/A   Clear
4:55 PM 56.5 °F - 34.7 °F 44% 29.92 in 10.0 mi SE 8.1 mph - N/A   Clear
5:15 PM 55.8 °F - 34.7 °F 45% 29.92 in 10.0 mi SE 8.1 mph - N/A   Clear
5:35 PM 55.4 °F - 34.3 °F 45% 29.92 in 10.0 mi SSE 10.4 mph - N/A   Clear
5:55 PM 54.5 °F - 34.7 °F 47% 29.94 in 10.0 mi SSE 5.8 mph - N/A   Clear
6:15 PM 53.6 °F - 34.3 °F 48% 29.95 in 10.0 mi SE 5.8 mph - N/A   Clear
6:35 PM 52.7 °F - 34.5 °F 50% 29.96 in 10.0 mi SE 5.8 mph - N/A   Clear
6:55 PM 52.7 °F - 34.3 °F 50% 29.96 in 10.0 mi SSE 8.1 mph - N/A   Clear
7:55 PM 51.3 °F - 34.3 °F 52% 29.97 in 10.0 mi SSE 5.8 mph - N/A   Clear
8:15 PM 50.9 °F - 34.5 °F 54% 29.97 in 10.0 mi SE 4.6 mph - N/A   Clear
8:35 PM 51.1 °F - 34.3 °F 53% 29.98 in 10.0 mi South 3.5 mph - N/A   Clear
8:55 PM 50.9 °F - 34.3 °F 53% 29.97 in 10.0 mi SSE 4.6 mph - N/A   Clear
9:15 PM 50.5 °F - 34.3 °F 54% 29.97 in 10.0 mi SSE 3.5 mph - N/A   Clear
9:55 PM 49.5 °F - 34.3 °F 56% 29.97 in 10.0 mi South 4.6 mph - N/A   Scattered Clouds
10:15 PM 49.5 °F - 34.7 °F 57% 29.98 in 10.0 mi Calm Calm - N/A   Scattered Clouds
10:35 PM 49.1 °F - 34.7 °F 58% 29.97 in 10.0 mi Calm Calm - N/A   Mostly Cloudy
10:55 PM 48.4 °F - 35.1 °F 60% 29.99 in 10.0 mi West 9.2 mph - N/A   Overcast
11:15 PM 48.4 °F - 37.2 °F 65% 29.99 in 10.0 mi WNW 8.1 mph - N/A   Mostly Cloudy
11:35 PM 47.3 °F - 37.9 °F 70% 29.99 in 10.0 mi NW 8.1 mph - N/A   Scattered Clouds
11:55 PM 46.8 °F - 38.5 °F 73% 29.99 in 10.0 mi WNW 6.9 mph - N/A   Clear